1497096000.71,26056,19.63,74116.0,4.27,4.15,4.15,0,*7B
1497096001.89,26057,19.63,74116.5,4.29,4.27,4.33,0,*71
1497096003.08,26058,19.63,74112.5,4.29,4.33,4.33,0,*7B
1497096004.26,26059,19.63,74110.8,4.29,4.53,4.45,0,*7D
1497096005.44,26060,19.63,74112.3,4.29,4.45,4.45,0,*70
1497096006.65,26061,19.63,74114.3,4.29,4.53,4.63,0,*72
1497096007.86,26062,19.63,74112.5,4.29,4.57,4.63,0,*75
1497096009.07,26063,19.63,74110.8,4.29,4.53,4.67,0,*74
1497096010.33,26064,19.63,74114.8,4.31,4.67,4.67,0,*7D
1497096011.6,26065,19.63,74112.8,4.31,4.59,4.71,0,*76
1497096012.83,26066,19.63,74112.8,4.33,4.59,4.67,0,*70
1497096014.03,26067,19.63,74116.3,4.31,4.45,4.49,0,*72
1497096015.22,26068,19.63,74114.8,4.33,4.37,4.45,0,*76
1497096016.4,26069,19.63,74112.3,4.33,4.33,4.45,0,*73
1497096017.62,26070,19.63,74114.3,4.31,4.37,4.37,0,*78
1497096018.8,26071,19.63,74112.0,4.33,4.37,4.45,0,*7E
1497096019.99,26072,19.63,74114.3,4.33,4.33,4.45,0,*79
1497096021.18,26073,19.63,74108.5,4.35,4.41,4.49,0,*77
1497096022.39,26074,19.63,74114.3,4.35,4.37,4.49,0,*71
1497096023.59,26075,19.63,74114.0,4.39,4.53,4.53,0,*75
1497096024.78,26076,19.63,74114.8,4.35,4.49,4.49,0,*7A
1497096026.01,26077,19.63,74112.0,4.35,4.53,4.59,0,*71
1497096027.21,26078,19.63,74108.5,4.35,4.49,4.41,0,*7C
1497096028.42,26079,19.63,74112.0,4.39,4.37,4.41,0,*78
1497096029.62,26080,19.63,74112.5,4.35,4.41,4.41,0,*73
1497096030.83,26081,19.63,74114.0,4.39,4.41,4.41,0,*7E
1497096032.03,26082,19.63,74114.5,4.39,4.41,4.41,0,*7D
1497096033.23,26083,19.63,74110.8,4.39,4.41,4.41,0,*7C
1497096034.42,26084,19.63,74110.5,4.39,4.49,4.49,0,*7B
1497096035.68,26085,19.63,74114.3,4.39,4.63,4.63,0,*7A
1497096036.93,26086,19.63,74108.5,4.39,4.59,4.59,0,*79
1497096038.16,26087,19.63,74114.0,4.41,4.67,4.67,0,*77
1497096039.33,26088,19.63,74116.5,4.41,4.81,4.81,0,*78
1497096040.55,26089,19.63,74114.5,4.43,4.79,4.81,0,*7C
1497096041.79,26090,19.63,74110.8,4.41,4.75,4.75,0,*71
1497096043.02,26091,19.63,74114.3,4.41,4.67,4.75,0,*73
1497096044.22,26092,19.63,74114.8,4.47,4.81,4.85,0,*71
1497096045.48,26093,19.63,74112.8,4.43,4.75,4.71,0,*74
1497096046.68,26094,19.63,74114.5,4.43,4.57,4.57,0,*77
1497096047.88,26095,19.63,74112.5,4.47,4.53,4.49,0,*79
1497096049.06,26096,19.63,74114.5,4.45,4.41,4.41,0,*73
1497096050.26,26097,19.63,74114.8,4.47,4.45,4.45,0,*70
1497096051.44,26098,19.63,74112.8,4.45,4.41,4.45,0,*79
1497096052.62,26099,19.63,74114.3,4.45,4.41,4.41,0,*7C
1497096053.8,26100,19.63,74112.5,4.45,4.41,4.41,0,*7D
1497096055.0,26101,19.63,74112.3,4.43,4.45,4.45,0,*7A
1497096056.2,26102,19.63,74114.0,4.43,4.45,4.49,0,*75
1497096057.37,26103,19.63,74112.3,4.45,4.49,4.45,0,*72
1497096058.54,26104,19.63,74114.8,4.45,4.49,4.49,0,*79
1497096059.71,26105,19.63,74112.5,4.45,4.45,4.45,0,*78
1497096060.9,26106,19.63,74114.3,4.45,4.41,4.41,0,*7B
1497096062.08,26107,19.63,74114.3,4.45,4.33,4.33,0,*7A
1497096063.28,26108,19.63,74108.3,4.45,4.33,4.31,0,*77
1497096064.49,26109,19.63,74112.5,4.45,4.23,4.31,0,*77
1497096065.67,26110,19.63,74114.0,4.45,4.33,4.33,0,*7C
1497096066.85,26111,19.63,74110.0,4.45,4.33,4.33,0,*7D
1497096068.04,26112,19.63,74112.8,4.45,4.33,4.33,0,*7E
1497096069.25,26113,19.63,74110.8,4.45,4.59,4.57,0,*71
1497096070.51,26114,19.63,74112.0,4.47,4.71,4.75,0,*7E
1497096071.74,26115,19.63,74114.8,4.47,4.75,4.81,0,*70
1497096073.0,26116,19.63,74110.0,4.47,4.71,4.71,0,*78
1497096074.23,26117,19.63,74108.8,4.45,4.59,4.59,0,*7B
1497096075.49,26118,19.63,74108.5,4.47,4.59,4.59,0,*76
1497096076.75,26119,19.63,74112.3,4.47,4.63,4.71,0,*74
1497096077.93,26120,19.63,74112.3,4.49,4.85,4.85,0,*73
1497096079.1,26121,19.63,74110.0,4.49,4.81,4.85,0,*76
1497096080.34,26122,19.63,74110.5,4.49,4.93,4.93,0,*71
1497096081.57,26123,19.63,74110.3,4.51,4.85,4.97,0,*7A
1497096082.8,26124,19.63,74108.3,4.51,4.85,4.97,0,*7D
1497096084.03,26125,19.63,74108.5,4.51,4.89,4.97,0,*70
1497096085.23,26126,19.63,74110.8,4.51,4.85,4.85,0,*7C
1497096086.48,26127,19.63,74112.3,4.51,4.79,4.79,0,*7D
1497096087.72,26128,19.63,74108.3,4.49,4.63,4.71,0,*78
1497096088.97,26129,19.63,74108.8,4.51,4.79,4.75,0,*7F
1497096090.21,26130,19.63,74110.8,4.53,4.79,4.79,0,*79
1497096091.44,26131,19.63,74112.8,4.53,4.79,4.79,0,*78
1497096092.64,26132,19.63,74108.5,4.53,4.79,4.89,0,*74
1497096093.84,26133,19.63,74110.0,4.55,4.81,4.81,0,*7C
1497096095.06,26134,19.63,74112.3,4.55,4.79,4.81,0,*7C
1497096096.32,26135,19.63,74114.0,4.55,4.79,4.79,0,*7A
1497096097.55,26136,19.63,74114.0,4.57,4.71,4.75,0,*7F
1497096098.81,26137,19.63,74108.5,4.55,4.67,4.71,0,*7F
1497096100.02,26138,19.63,74112.8,4.57,4.85,4.93,0,*72
1497096101.25,26139,19.63,74110.8,4.55,4.89,4.93,0,*7D
1497096102.45,26140,19.63,74112.3,4.55,4.89,4.89,0,*78
1497096103.71,26141,19.63,74110.5,4.55,4.67,4.67,0,*79
1497096104.95,26142,19.63,74110.8,4.61,4.63,4.71,0,*7E
1497096106.12,26143,19.63,74110.0,4.57,4.45,4.49,0,*75
1497096107.3,26144,19.63,74110.8,4.57,4.37,4.33,0,*7A
1497096108.51,26145,19.63,74112.3,4.55,4.23,4.23,0,*7D
1497096109.74,26146,19.63,74110.0,4.55,4.31,4.33,0,*7C
1497096110.95,26147,19.63,74110.8,4.55,4.41,4.41,0,*7F
1497096112.15,26148,19.63,74112.5,4.55,4.45,4.53,0,*77
1497096113.36,26149,19.63,74110.0,4.55,4.53,4.57,0,*75
1497096114.59,26150,19.63,74110.5,4.57,4.63,4.75,0,*7C
1497096115.82,26151,19.63,74112.8,4.55,4.71,4.81,0,*77
1497096117.02,26152,19.63,74110.8,4.57,4.81,4.93,0,*7A
1497096118.23,26153,19.63,74112.3,4.57,4.85,4.93,0,*7F
1497096119.43,26154,19.63,74114.3,4.57,4.85,4.93,0,*78
1497096120.64,26155,19.63,74114.8,4.61,4.85,4.97,0,*78
1497096121.82,26156,19.63,74112.0,4.61,4.85,4.85,0,*78
1497096123.05,26157,19.63,74110.8,4.63,4.79,4.85,0,*78
1497096124.23,26158,19.63,74112.0,4.61,4.85,4.85,0,*76
1497096125.44,26159,19.63,74110.5,4.61,4.75,4.81,0,*7C
1497096126.67,26160,19.63,74110.0,4.61,4.63,4.59,0,*74
1497096127.9,26161,19.63,74114.0,4.61,4.75,4.75,0,*7C
1497096129.11,26162,19.63,74112.0,4.61,4.75,4.81,0,*74
1497096130.35,26163,19.63,74112.0,4.61,4.71,4.75,0,*7A
1497096131.59,26164,19.63,74110.5,4.61,4.63,4.71,0,*7A
1497096132.81,26165,19.63,74112.5,4.65,4.59,4.59,0,*7C
1497096134.02,26166,19.63,74112.3,4.61,4.59,4.49,0,*7A
1497096135.25,26167,19.63,74112.8,4.57,4.63,4.63,0,*7F
1497096136.5,26168,19.63,74114.3,4.63,4.67,4.79,0,*78
1497096137.68,26169,19.63,74110.5,4.61,4.85,4.85,0,*74
1497096138.86,26170,19.63,74114.0,4.61,4.85,4.85,0,*7C
1497096140.07,26171,19.63,74112.5,4.65,4.85,4.97,0,*7A
1497096141.27,26172,19.63,74108.5,4.65,4.85,4.79,0,*79
1497096142.52,26173,19.63,74112.8,4.63,4.59,4.59,0,*7D
1497096143.76,26174,19.63,74108.8,4.63,4.53,4.59,0,*70
1497096144.98,26175,19.63,74112.5,4.65,4.59,4.59,0,*7D
1497096146.24,26176,19.63,74112.0,4.63,4.67,4.67,0,*78
1497096147.5,26177,19.63,74112.3,4.63,4.67,4.63,0,*7D
1497096148.75,26178,19.63,74112.3,4.63,3.71,3.79,0,*7E
1497096149.93,26179,19.63,74112.3,4.65,4.37,4.37,0,*71
1497096151.1,26180,19.63,74110.8,4.65,4.49,4.49,0,*77
1497096152.3,26181,19.63,74112.3,4.63,4.49,4.53,0,*7B
1497096153.51,26182,19.63,74112.0,4.63,4.53,4.53,0,*73
1497096154.72,26183,19.63,74112.5,4.63,4.53,4.53,0,*72
1497096155.92,26184,19.63,74110.5,4.63,4.53,4.49,0,*7E
1497096157.13,26185,19.63,74108.3,4.63,4.41,4.41,0,*74
1497096158.32,26186,19.63,74110.3,4.63,4.49,4.49,0,*77
1497096159.53,26187,19.63,74112.5,4.63,4.53,4.53,0,*76
1497096160.79,26188,19.63,74112.5,4.63,4.67,4.75,0,*7A
1497096162.05,26189,19.63,74110.3,4.63,4.63,4.67,0,*7C
1497096163.28,26190,19.63,74114.5,4.63,4.53,4.59,0,*7A
1497096164.48,26191,19.63,74112.3,4.65,4.53,4.59,0,*7D
1497096165.73,26192,19.63,74112.0,4.63,4.59,4.59,0,*72
1497096166.96,26193,19.63,74110.0,4.63,4.53,4.59,0,*79
1497096168.19,26194,19.63,74108.3,4.63,4.53,4.59,0,*7E
1497096169.37,26195,19.63,74110.8,4.65,4.53,4.53,0,*73
1497096170.6,26196,19.63,74110.5,4.63,4.53,4.59,0,*7C
1497096171.83,26197,19.63,74112.0,4.65,4.67,4.67,0,*71
1497096173.08,26198,19.63,74110.0,4.63,4.79,4.79,0,*78
1497096174.35,26199,19.63,74110.8,4.63,4.75,4.75,0,*79
1497096175.55,26200,19.63,74108.5,4.65,4.85,4.79,0,*7F
1497096176.8,26201,19.63,74110.8,4.63,4.75,4.79,0,*77
1497096177.98,26202,19.63,74110.0,4.65,4.89,4.85,0,*72
1497096179.15,26203,19.63,74110.5,4.65,4.85,4.89,0,*73
1497096180.32,26204,19.63,74108.0,4.65,4.85,4.89,0,*74
1497096181.5,26205,19.63,74112.8,4.65,4.85,4.85,0,*79
1497096182.73,26206,19.63,74110.5,4.65,4.75,4.75,0,*7A
1497096183.96,26207,19.63,74112.3,4.65,4.79,4.75,0,*77
1497096185.21,26208,19.63,74112.5,4.67,4.79,4.79,0,*76
1497096186.47,26209,19.63,74110.0,4.67,4.79,4.79,0,*77
1497096187.69,26210,19.63,74112.8,4.67,4.79,4.81,0,*78
1497096188.89,26211,19.63,74112.0,4.69,4.75,4.81,0,*7B
1497096190.15,26212,19.63,74112.0,4.67,4.79,4.79,0,*7D
1497096191.41,26213,19.63,74108.5,4.67,4.79,4.79,0,*7C
1497096192.63,26214,19.63,74112.5,4.67,4.79,4.81,0,*7C
1497096193.89,26215,19.63,74110.0,4.67,4.79,4.79,0,*7A
1497096195.14,26216,19.63,74114.0,4.67,4.79,4.79,0,*79
1497096196.32,26217,19.63,74112.5,4.69,4.81,4.81,0,*76
1497096197.49,26218,19.63,74112.0,4.69,4.81,4.81,0,*79
1497096198.7,26219,19.63,74110.0,4.69,4.59,4.57,0,*76
1497096199.87,26220,19.63,74108.3,4.69,4.49,4.57,0,*7D
1497096201.06,26221,19.63,74108.5,4.69,4.53,4.57,0,*77
1497096202.26,26222,19.63,74110.8,4.67,4.57,4.57,0,*7E
1497096203.47,26223,19.63,74110.0,4.67,4.41,4.41,0,*7F
1497096204.67,26224,19.63,74112.5,4.67,4.41,4.45,0,*7C
1497096205.85,26225,19.63,74108.8,4.69,4.49,4.57,0,*78
1497096207.08,26226,19.63,74110.5,4.69,4.59,4.59,0,*74
1497096208.31,26227,19.63,74108.8,4.69,4.75,4.75,0,*75
1497096209.57,26228,19.63,74110.0,4.67,4.71,4.75,0,*70
1497096210.75,26229,19.63,74114.0,4.69,4.85,4.85,0,*7B
1497096211.92,26230,19.63,74110.0,4.69,4.81,4.81,0,*73
1497096213.18,26231,19.63,74108.5,4.67,4.79,4.79,0,*7C
1497096214.44,26232,19.63,74110.0,4.67,4.79,4.71,0,*77
1497096215.67,26233,19.63,74112.3,4.69,4.75,4.71,0,*74
1497096216.93,26234,19.63,74114.5,4.67,4.63,4.63,0,*79
1497096218.16,26235,19.63,74110.5,4.69,4.59,4.67,0,*7B
1497096219.4,26236,19.63,74112.3,4.69,4.75,4.75,0,*75
1497096220.66,26237,19.63,74112.3,4.67,4.71,4.79,0,*72
1497096221.89,26238,19.63,74108.5,4.69,4.75,4.67,0,*78
1497096223.12,26239,19.63,74110.3,4.69,4.67,4.67,0,*7A
1497096224.35,26240,19.63,74112.3,4.73,4.75,4.75,0,*7F
1497096225.59,26241,19.63,74110.0,4.69,4.67,4.71,0,*72
1497096226.82,26242,19.63,74110.8,4.69,4.67,4.67,0,*76
1497096228.04,26243,19.63,74112.0,4.69,4.67,4.67,0,*77
1497096229.27,26244,19.63,74114.0,4.69,4.67,4.67,0,*70
1497096230.45,26245,19.63,74110.3,4.69,4.45,4.37,0,*74
1497096231.69,26246,19.63,74112.3,4.67,4.31,4.33,0,*7E
1497096232.89,26247,19.63,74108.3,4.67,4.41,4.45,0,*79
1497096234.09,26248,19.63,74110.0,4.69,4.57,4.59,0,*72
1497096235.33,26249,19.63,74114.8,4.73,4.59,4.63,0,*7F
1497096236.53,26250,19.63,74108.5,4.67,4.45,4.53,0,*7C
1497096237.71,26251,19.63,74112.8,4.69,4.45,4.41,0,*70
1497096238.89,26252,19.63,74112.8,4.69,4.53,4.45,0,*70
1497096240.1,26253,19.63,74112.0,4.67,4.53,4.53,0,*78
1497096241.28,26254,19.63,74112.3,4.69,4.53,4.57,0,*75
1497096242.48,26255,19.63,74112.3,4.67,4.53,4.45,0,*79
1497096243.69,26256,19.63,74112.8,4.73,4.53,4.63,0,*7B
1497096244.89,26257,19.63,74112.3,4.67,4.45,4.53,0,*7B
1497096246.1,26258,19.63,74110.5,4.67,4.57,4.53,0,*77
1497096247.3,26259,19.63,74110.3,4.67,4.57,4.53,0,*76
1497096248.51,26260,19.63,74114.3,4.67,4.53,4.45,0,*7F
1497096249.69,26261,19.63,74112.3,4.69,4.57,4.57,0,*77
1497096250.89,26262,19.63,74112.8,4.67,4.53,4.53,0,*7A
1497096252.1,26263,19.63,74114.0,4.67,4.33,4.33,0,*7B
1497096253.3,26264,19.63,74108.8,4.67,4.45,4.45,0,*7C
1497096254.51,26265,19.63,74112.0,4.67,4.41,4.41,0,*7D
1497096255.72,26266,19.63,74110.0,4.67,4.33,4.41,0,*7B
1497096256.95,26267,19.63,74110.0,4.67,4.33,4.31,0,*7D
1497096258.18,26268,19.63,74112.5,4.67,4.31,4.23,0,*73
1497096259.39,26269,19.63,74114.0,4.67,4.53,4.57,0,*75
1497096260.57,26270,19.63,74112.0,4.69,4.53,4.57,0,*73
1497096261.78,26271,19.63,74114.0,4.67,4.53,4.45,0,*7F
1497096262.97,26272,19.63,74114.3,4.65,4.37,4.41,0,*78
1497096264.14,26273,19.63,74112.3,4.65,4.41,4.49,0,*70
1497096265.32,26274,19.63,74114.0,4.65,4.37,4.41,0,*7E
1497096266.5,26275,19.63,74112.8,4.65,4.41,4.37,0,*7F
1497096267.7,26276,19.63,74114.0,4.65,4.31,4.49,0,*72
1497096268.88,26277,19.63,74112.5,4.65,4.37,4.37,0,*7C
1497096270.09,26278,19.63,74114.8,4.65,4.31,4.37,0,*75
1497096271.3,26279,19.63,74114.0,4.63,4.41,4.41,0,*74
1497096272.47,26280,19.63,74114.8,4.65,4.41,4.41,0,*74
1497096273.66,26281,19.63,74112.3,4.65,4.37,4.37,0,*75
1497096274.87,26282,19.63,74110.8,4.63,4.37,4.37,0,*70
1497096276.08,26283,19.63,74110.5,4.65,4.31,4.37,0,*71
1497096277.29,26284,19.63,74112.0,4.65,4.37,4.31,0,*76
1497096278.53,26285,19.63,74112.5,4.63,4.31,4.37,0,*71
1497096279.72,26286,19.63,74114.3,4.65,4.31,4.27,0,*75
1497096280.95,26287,19.63,74110.5,4.65,4.31,4.31,0,*73
1497096282.13,26288,19.63,74112.3,4.65,4.27,4.27,0,*7C
1497096283.3,26289,19.63,74110.8,4.65,4.27,4.27,0,*7D
1497096284.56,26290,19.63,74112.3,4.63,4.31,4.31,0,*73
1497096285.76,26291,19.63,74110.8,4.63,4.27,4.27,0,*72
1497096286.96,26292,19.63,74108.8,4.63,4.19,4.27,0,*7C
1497096288.16,26293,19.63,74112.0,4.63,4.19,4.19,0,*70
1497096289.36,26294,19.63,74112.3,4.63,4.27,4.27,0,*77
1497096290.57,26295,19.63,74110.3,4.63,4.27,4.27,0,*76
1497096291.77,26296,19.63,74112.5,4.63,4.15,4.15,0,*75
1497096292.97,26297,19.63,74112.3,4.63,4.15,4.15,0,*74
1497096294.21,26298,19.63,74112.8,4.63,4.05,4.07,0,*79
1497096295.44,26299,19.63,74112.3,4.61,4.01,4.05,0,*7C
1497096296.68,26300,19.63,74112.3,4.61,4.05,4.05,0,*79
1497096297.9,26301,19.63,74112.5,4.57,4.01,4.01,0,*7D
1497096299.1,26302,19.63,74114.5,4.57,4.11,4.05,0,*7B
1497096300.3,26303,19.63,74112.5,4.57,4.05,4.11,0,*7A
1497096301.51,26304,19.63,74110.8,4.57,4.05,4.15,0,*79
1497096302.74,26305,19.63,74116.5,4.57,4.05,4.01,0,*7D
1497096303.96,26306,19.63,74112.3,4.57,4.01,4.05,0,*7E
1497096305.2,26307,19.63,74108.5,4.61,4.05,4.05,0,*7E
1497096306.37,26308,19.63,74112.5,4.57,4.11,4.15,0,*70
1497096307.55,26309,19.63,74110.3,4.57,4.15,4.15,0,*75
1497096308.73,26310,19.63,74112.3,4.57,4.15,4.15,0,*7D
1497096309.9,26311,19.63,74110.8,4.57,4.11,4.11,0,*7C
1497096311.11,26312,19.63,74114.0,4.57,4.11,4.05,0,*7A
1497096312.31,26313,19.63,74114.0,4.57,4.11,4.05,0,*7B
1497096313.49,26314,19.63,74114.8,4.57,4.15,4.15,0,*79
1497096314.67,26315,19.63,74108.5,4.57,4.15,4.23,0,*7D
1497096315.85,26316,19.63,74112.3,4.57,4.15,4.15,0,*7B
1497096317.05,26317,19.63,74110.8,4.55,4.07,4.07,0,*78
1497096318.28,26318,19.63,74112.5,4.55,3.97,4.07,0,*79
1497096319.49,26319,19.63,74112.0,4.53,3.97,3.93,0,*74
1497096320.7,26320,19.63,74110.5,4.55,4.07,4.07,0,*7C
1497096321.87,26321,19.63,74112.3,4.53,4.11,4.11,0,*7B
1497096323.08,26322,19.63,74112.0,4.55,4.07,4.07,0,*7E
1497096324.33,26323,19.63,74114.0,4.55,4.01,4.01,0,*7F
1497096325.54,26324,19.63,74114.5,4.55,4.07,4.07,0,*78
1497096326.77,26325,19.63,74114.8,4.55,4.01,4.07,0,*7F
1497096327.97,26326,19.63,74114.0,4.53,3.97,4.07,0,*72
1497096329.17,26327,19.63,74110.0,4.55,4.19,4.23,0,*72
1497096330.35,26328,19.63,74114.0,4.53,4.15,4.15,0,*72
1497096331.55,26329,19.63,74110.3,4.55,4.19,4.23,0,*7C
1497096332.75,26330,19.63,74114.0,4.55,4.19,4.19,0,*7D
1497096333.96,26331,19.63,74112.0,4.53,4.07,4.05,0,*78
1497096335.13,26332,19.63,74114.8,4.53,4.19,4.19,0,*79
1497096336.31,26333,19.63,74114.0,4.53,4.27,4.27,0,*78
1497096337.51,26334,19.63,74114.0,4.53,4.31,4.27,0,*78
1497096338.69,26335,19.63,74112.5,4.53,4.27,4.19,0,*73
1497096339.87,26336,19.63,74112.5,4.53,4.15,4.15,0,*7D
1497096341.04,26337,19.63,74110.5,4.53,4.19,4.19,0,*7C
1497096342.23,26338,19.63,74110.0,4.53,4.15,4.15,0,*73
1497096343.4,26339,19.63,74110.5,4.53,4.19,4.19,0,*72
1497096344.58,26340,19.63,74110.3,4.53,4.15,4.15,0,*7C
1497096345.76,26341,19.63,74112.0,4.53,4.33,4.33,0,*7D
1497096346.96,26342,19.63,74112.8,4.55,4.19,4.19,0,*78
1497096348.14,26343,19.63,74114.8,4.53,4.19,4.19,0,*7F
1497096349.31,26344,19.63,74108.5,4.53,4.15,4.27,0,*79
1497096350.5,26345,19.63,74110.8,4.53,3.93,3.93,0,*79
1497096351.7,26346,19.63,74110.3,4.53,3.93,3.97,0,*7E
1497096352.91,26347,19.63,74110.8,4.53,3.85,3.97,0,*78
1497096354.08,26348,19.63,74112.5,4.53,4.19,4.19,0,*74
1497096355.26,26349,19.63,74114.3,4.53,4.15,4.15,0,*75
1497096356.43,26350,19.63,74110.8,4.53,4.19,4.19,0,*7D
1497096357.62,26351,19.63,74108.5,4.53,4.27,4.15,0,*7D
1497096358.8,26352,19.63,74110.5,4.53,4.41,4.37,0,*7E
1497096359.98,26353,19.63,74112.5,4.53,4.41,4.41,0,*7E
1497096361.19,26354,19.63,74110.0,4.53,4.31,4.37,0,*7F
1497096362.38,26355,19.63,74110.3,4.53,4.41,4.41,0,*78
1497096363.59,26356,19.63,74108.3,4.53,4.27,4.31,0,*7C
1497096364.8,26357,19.63,74110.0,4.53,4.27,4.31,0,*7D
1497096366.01,26358,19.63,74108.3,4.53,4.27,4.31,0,*72
1497096367.24,26359,19.63,74108.0,4.53,4.31,4.31,0,*74
1497096368.42,26360,19.63,74110.8,4.53,4.41,4.41,0,*7E
1497096369.63,26361,19.63,74110.0,4.55,4.45,4.41,0,*7D
1497096370.82,26362,19.63,74112.5,4.53,4.37,4.41,0,*7D
1497096372.0,26363,19.63,74110.0,4.53,4.41,4.37,0,*7C
1497096373.18,26364,19.63,74108.0,4.53,4.27,4.27,0,*7A
1497096374.41,26365,19.63,74114.5,4.53,4.05,4.05,0,*7B
1497096375.62,26366,19.63,74114.5,4.53,4.01,4.07,0,*7E
1497096376.79,26367,19.63,74112.5,4.53,4.19,4.19,0,*79
1497096377.98,26368,19.63,74110.3,4.53,4.07,4.07,0,*76
1497096379.15,26369,19.63,74114.0,4.53,4.19,4.19,0,*77
1497096380.33,26370,19.63,74112.5,4.53,4.19,4.27,0,*72
1497096381.5,26371,19.63,74110.0,4.53,4.19,4.19,0,*7E
1497096382.68,26372,19.63,74110.8,4.53,4.27,4.27,0,*7D
1497096383.91,26373,19.63,74108.8,4.53,4.31,4.31,0,*7C
1497096385.09,26374,19.63,74110.5,4.53,4.27,4.27,0,*7B
1497096386.27,26375,19.63,74112.0,4.53,4.15,4.15,0,*7A
1497096387.47,26376,19.63,74112.3,4.55,4.07,4.11,0,*78
1497096388.68,26377,19.63,74114.0,4.53,3.93,3.97,0,*7C
1497096389.86,26378,19.63,74110.5,4.53,3.93,3.85,0,*70
1497096391.06,26379,19.63,74108.5,4.53,3.97,3.93,0,*72
1497096392.3,26380,19.63,74110.5,4.53,4.05,4.05,0,*70
1497096393.51,26381,19.63,74110.8,4.53,4.07,4.05,0,*73
1497096394.71,26382,19.63,74112.3,4.51,4.19,4.15,0,*7C
1497096395.9,26383,19.63,74110.0,4.51,4.07,4.19,0,*7E
1497096397.16,26384,19.63,74110.8,4.51,4.05,4.05,0,*76
1497096398.42,26385,19.63,74110.5,4.51,4.05,4.05,0,*77
1497096399.66,26386,19.63,74114.3,4.51,3.97,4.05,0,*78
1497096400.85,26387,19.63,74108.3,4.49,3.85,3.93,0,*7B
1497096402.04,26388,19.63,74110.5,4.51,4.15,4.19,0,*76
1497096403.28,26389,19.63,74110.5,4.51,4.05,4.07,0,*79
1497096404.48,26390,19.63,74114.0,4.49,4.01,3.93,0,*76
1497096405.68,26391,19.63,74110.3,4.51,4.07,4.07,0,*72
1497096406.92,26392,19.63,74108.0,4.51,4.07,4.05,0,*73
1497096408.16,26393,19.63,74108.3,4.51,3.97,4.01,0,*78
1497096409.41,26394,19.63,74112.3,4.51,3.97,3.97,0,*77
1497096410.65,26395,19.63,74110.0,4.51,3.97,4.05,0,*7A
1497096411.86,26396,19.63,74112.5,4.51,4.07,4.07,0,*75
1497096413.09,26397,19.63,74108.5,4.49,4.05,4.01,0,*79
1497096414.27,26398,19.63,74110.5,4.49,4.11,4.15,0,*76
1497096415.46,26399,19.63,74110.8,4.49,4.27,4.37,0,*72
1497096416.69,26400,19.63,74110.8,4.51,4.31,4.37,0,*7B
1497096417.9,26401,19.63,74108.5,4.51,4.37,4.37,0,*7C
1497096419.16,26402,19.63,74112.3,4.51,4.31,4.31,0,*7F
1497096420.37,26403,19.63,74112.5,4.51,4.37,4.41,0,*7F
1497096421.55,26404,19.63,74114.8,4.49,4.33,4.33,0,*70
1497096422.75,26405,19.63,74110.5,4.51,4.41,4.49,0,*70
1497096423.95,26406,19.63,74110.8,4.51,4.53,4.53,0,*7B
1497096425.13,26407,19.63,74108.5,4.53,4.53,4.53,0,*78
1497096426.31,26408,19.63,74110.3,4.53,4.53,4.49,0,*7C
1497096427.52,26409,19.63,74112.8,4.55,4.53,4.57,0,*74
1497096428.72,26410,19.63,74112.0,4.55,4.41,4.45,0,*7C
1497096429.9,26411,19.63,74112.3,4.53,4.57,4.57,0,*7F
1497096431.16,26412,19.63,74106.5,4.55,4.59,4.59,0,*7A
1497096432.34,26413,19.63,74110.0,4.53,4.57,4.57,0,*7D
1497096433.6,26414,19.63,74110.0,4.55,4.59,4.67,0,*71
1497096434.82,26415,19.63,74112.0,4.55,4.57,4.59,0,*73
1497096436.03,26416,19.63,74110.3,4.55,4.53,4.53,0,*7E
1497096437.28,26417,19.63,74110.5,4.55,4.59,4.59,0,*7F
1497096438.49,26418,19.63,74108.3,4.55,4.53,4.53,0,*70
1497096439.69,26419,19.63,74110.3,4.55,4.45,4.57,0,*72
1497096440.87,26420,19.63,74108.3,4.57,4.57,4.57,0,*79
1497096442.05,26421,19.63,74110.5,4.57,4.57,4.57,0,*78
1497096443.26,26422,19.63,74110.0,4.57,4.59,4.57,0,*75
1497096444.43,26423,19.63,74110.0,4.57,4.49,4.57,0,*75
1497096445.61,26424,19.63,74110.0,4.61,4.49,4.57,0,*77
1497096446.79,26425,19.63,74110.0,4.57,4.49,4.57,0,*73
1497096448.02,26426,19.63,74106.3,4.57,4.59,4.63,0,*76
1497096449.25,26427,19.63,74108.3,4.57,4.59,4.59,0,*7E
1497096450.48,26428,19.63,74108.8,4.61,4.59,4.63,0,*7D
1497096451.69,26429,19.63,74110.0,4.57,4.59,4.57,0,*7E
1497096452.89,26430,19.63,74108.8,4.61,4.57,4.59,0,*73
1497096454.1,26431,19.63,74110.8,4.61,4.57,4.59,0,*72
1497096455.33,26432,19.63,74112.3,4.57,4.63,4.63,0,*7A
1497096456.56,26433,19.63,74110.3,4.61,4.63,4.59,0,*77
1497096457.78,26434,19.63,74108.3,4.61,4.63,4.59,0,*70
1497096459.02,26435,19.63,74112.5,4.61,4.63,4.71,0,*7B
1497096460.27,26436,19.63,74110.8,4.63,4.63,4.59,0,*70
1497096461.53,26437,19.63,74114.3,4.63,4.63,4.63,0,*78
1497096462.79,26438,19.63,74108.8,4.63,4.67,4.67,0,*77
1497096464.02,26439,19.63,74114.8,4.65,4.75,4.79,0,*7C
1497096465.27,26440,19.63,74110.8,4.63,4.79,4.79,0,*78
1497096466.5,26441,19.63,74112.5,4.65,4.59,4.59,0,*7F
1497096467.76,26442,19.63,74110.8,4.67,4.63,4.63,0,*7E
1497096468.98,26443,19.63,74110.0,4.65,4.59,4.59,0,*7D
1497096470.24,26444,19.63,74114.5,4.63,4.63,4.63,0,*7C
1497096471.47,26445,19.63,74110.3,4.65,4.67,4.67,0,*7B
1497096472.69,26446,19.63,74110.0,4.65,4.75,4.79,0,*74
1497096473.89,26447,19.63,74112.0,4.65,4.85,4.79,0,*7A
1497096475.1,26448,19.63,74108.3,4.67,4.89,4.89,0,*74
1497096476.32,26449,19.63,74110.8,4.67,4.79,4.81,0,*72
1497096477.56,26450,19.63,74112.3,4.67,4.89,4.93,0,*76
1497096478.82,26451,19.63,74108.5,4.67,5.01,5.05,0,*78
1497096480.05,26452,19.63,74108.3,4.67,4.89,5.01,0,*7E
1497096481.32,26453,19.63,74112.3,4.67,4.93,5.01,0,*74
1497096482.55,26454,19.63,74110.5,4.69,4.97,5.05,0,*7D
1497096483.78,26455,19.63,74110.0,4.69,4.93,4.97,0,*72
1497096484.99,26456,19.63,74110.8,4.69,4.85,4.93,0,*72
1497096486.23,26457,19.63,74112.3,4.73,4.97,5.01,0,*71
1497096487.44,26458,19.63,74114.5,4.73,5.01,5.07,0,*76
1497096488.61,26459,19.63,74110.8,4.73,4.85,4.85,0,*71
1497096489.79,26460,19.63,74114.5,4.73,4.85,4.89,0,*77
1497096491.03,26461,19.63,74110.3,4.73,5.01,5.01,0,*7A
1497096492.21,26462,19.63,74110.0,4.73,5.11,5.19,0,*71
1497096493.39,26463,19.63,74110.8,4.73,5.11,5.19,0,*70
1497096494.58,26464,19.63,74114.5,4.73,4.89,5.07,0,*78
1497096495.79,26465,19.63,74110.3,4.75,5.19,5.11,0,*70
1497096497.0,26466,19.63,74110.8,4.75,5.23,5.23,0,*7B
1497096498.19,26467,19.63,74110.0,4.77,5.11,5.19,0,*70
1497096499.41,26468,19.63,74114.5,4.79,5.27,5.29,0,*77
1497096500.62,26469,19.63,74108.8,4.75,5.23,5.23,0,*74
1497096501.83,26470,19.63,74108.8,4.77,5.23,5.27,0,*7A
1497096503.03,26471,19.63,74108.8,4.77,5.15,5.27,0,*7E
1497096504.23,26472,19.63,74110.5,4.77,5.15,5.27,0,*7D
1497096505.44,26473,19.63,74114.0,4.77,5.23,5.27,0,*79
1497096506.66,26474,19.63,74114.3,4.81,5.27,5.27,0,*73
1497096507.88,26475,19.63,74110.5,4.79,5.29,5.27,0,*7B
1497096509.09,26476,19.63,74108.8,4.79,5.19,5.29,0,*75
1497096510.29,26477,19.63,74110.8,4.81,5.05,5.15,0,*71
1497096511.51,26478,19.63,74108.5,4.81,5.27,5.27,0,*7F
1497096512.69,26479,19.63,74108.8,4.81,5.15,5.15,0,*7E
1497096513.87,26480,19.63,74108.3,4.81,5.15,5.19,0,*74
1497096515.04,26481,19.63,74110.8,4.81,5.41,5.49,0,*71
1497096516.27,26482,19.63,74110.5,4.81,5.51,5.51,0,*7A
1497096517.48,26483,19.63,74110.0,4.85,5.27,5.27,0,*7F
1497096518.67,26484,19.63,74110.8,4.85,5.23,5.23,0,*78
1497096519.85,26485,19.63,74108.0,4.85,5.33,5.41,0,*7C
1497096521.04,26486,19.63,74110.3,4.87,5.29,5.33,0,*73
1497096522.29,26487,19.63,74110.0,4.87,5.51,5.51,0,*79
1497096523.49,26488,19.63,74112.8,4.87,5.41,5.45,0,*72
1497096524.71,26489,19.63,74110.5,4.89,5.27,5.27,0,*79
1497096525.88,26490,19.63,74110.8,4.89,5.37,5.37,0,*71
1497096527.05,26491,19.63,74108.8,4.89,5.33,5.37,0,*74
1497096528.25,26492,19.63,74110.8,4.91,5.41,5.49,0,*72